Wind_Speed
48 48 47 47 47 47 46 44 45 44 43 42 41 40 39 38 37 36 35 35 34 33 33 34 34 33 33 32 32 33 34 34 34 35 35 36 37 37 38 38 39 39 40
47 47 48 49 48 46 47 46 45 46 47 46 44 42 41 40 38 38 37 37 36 36 36 36 35 35 35 35 36 36 37 37 37 37 38 38 39 39 40 40 41 42 42
46 46 47 47 48 49 48 47 46 46 46 46 45 44 43 42 41 40 40 39 37 37 38 38 38 38 38 37 37 38 39 40 41 41 42 42 42 42 42 43 43 44 45
47 46 47 47 48 48 49 49 48 48 47 47 47 46 45 44 43 42 42 40 40 39 39 39 39 39 39 39 40 40 40 41 42 43 44 45 46 46 46 45 45 46 46
47 48 48 48 48 49 49 50 50 49 48 48 47 46 45 44 43 43 42 41 41 41 41 41 41 41 41 41 42 42 43 44 44 45 47 48 48 48 48 47 47 47 47
45 47 48 49 48 49 50 50 51 50 49 49 48 47 46 45 44 44 44 43 43 43 43 44 43 43 43 43 44 45 46 47 47 48 48 49 48 48 49 49 48 48 48
46 47 48 49 50 49 50 50 50 51 51 50 49 49 48 48 47 46 45 45 45 45 45 46 46 46 46 47 47 47 48 48 49 49 49 50 50 50 50 50 50 50 50
44 46 48 49 50 50 50 51 51 50 51 50 50 49 50 49 49 49 48 48 48 48 48 48 48 49 49 49 49 49 49 49 49 50 50 51 51 50 50 50 51 51 51
41 44 47 48 50 51 51 51 52 52 52 52 52 51 51 51 51 51 51 50 49 49 49 50 50 50 50 51 50 50 50 51 50 50 51 51 51 52 51 51 51 52 52
41 43 46 47 48 49 51 51 51 51 51 52 53 53 53 53 52 51 52 52 52 51 51 52 52 52 51 50 51 51 52 51 51 51 51 51 51 51 51 51 51 51 50
39 42 45 46 47 48 49 51 51 51 51 51 51 52 53 53 52 52 52 52 52 52 52 52 51 51 50 50 50 50 50 50 50 50 50 50 50 50 50 50 50 49 49
36 39 42 44 46 47 48 48 50 51 51 50 50 50 50 51 51 51 52 52 51 51 51 50 50 50 50 50 49 50 49 49 50 50 50 49 49 49 49 49 48 48 48
33 36 38 41 43 45 46 47 48 48 49 49 49 49 49 49 50 50 50 50 49 50 50 50 50 50 50 50 49 49 49 48 48 48 48 48 48 48 47 47 47 47 47
33 35 36 38 39 41 43 44 44 45 46 47 46 47 47 47 47 48 48 48 48 48 49 49 48 48 48 48 47 47 47 47 47 47 47 47 46 46 46 46 46 46 46
30 32 35 36 37 38 40 42 42 42 43 43 44 44 44 45 45 45 46 46 46 46 46 46 46 46 46 46 46 45 45 45 45 46 46 46 46 46 45 45 45 45 45
30 32 33 35 36 36 38 39 40 41 41 42 42 42 42 43 43 43 44 44 44 44 44 44 44 44 44 44 44 44 44 45 45 45 45 45 45 44 44 44 43 43 43
28 29 31 33 34 35 37 38 39 40 40 40 41 41 42 42 42 43 43 43 43 43 43 43 43 43 43 43 43 43 44 44 45 45 45 44 43 43 42 42 42 42 41
27 27 29 31 32 34 36 37 39 40 40 39 39 40 41 42 42 42 42 42 42 42 42 42 42 43 43 44 44 45 45 45 45 44 43 42 42 41 41 40 40 40 39
26 27 29 32 32 33 35 36 37 39 40 40 40 40 41 41 41 41 41 41 42 42 42 42 42 43 43 44 44 44 44 44 44 43 42 41 41 40 40 39 39 38 38
26 27 29 30 32 32 34 35 35 37 38 39 39 39 40 40 40 40 40 40 40 41 41 41 42 42 42 41 41 41 41 41 41 41 40 40 39 39 39 38 38 37 37
26 27 28 29 30 31 32 33 34 35 36 37 38 38 38 38 39 38 38 39 39 40 40 40 41 41 41 40 40 39 39 39 39 39 39 38 38 37 36 36 36 36 36
26 27 28 29 30 30 31 32 33 33 34 35 36 37 37 37 38 38 38 39 39 39 39 39 40 40 39 39 39 39 38 37 37 37 37 36 36 35 35 35 35 35 35
26 27 28 28 29 29 30 30 31 33 33 34 35 35 36 36 37 37 38 38 38 38 38 39 39 38 38 38 38 37 36 36 36 35 35 35 35 35 35 35 34 34 34
27 27 27 28 29 29 29 30 30 31 32 33 34 34 35 35 36 36 36 36 36 36 36 36 37 37 37 37 36 36 35 35 35 35 35 34 34 34 34 34 34 33 33
28 28 27 28 29 29 29 29 30 31 31 32 32 33 33 33 34 34 35 36 36 35 35 36 36 36 36 36 35 35 35 34 34 33 33 33 33 33 33 33 33 33 33
27 28 28 28 29 29 29 29 30 30 31 31 32 32 32 32 33 33 34 34 34 34 34 34 34 34 34 34 34 33 33 33 33 33 33 33 33 33 33 32 32 33 33
Wind_Direction
220 221 222 223 225 226 227 227 228 230 231 233 236 238 238 239 242 244 247 249 252 254 257 259 261 262 264 266 268 271 274 276 278 280 283 286 289 289 289 290 291 293 294
219 222 223 224 225 226 228 229 231 233 235 236 237 240 241 241 244 247 249 252 255 257 258 260 262 264 266 268 270 272 275 277 279 281 283 284 286 287 289 290 291 291 292
221 224 225 226 228 228 229 231 233 234 236 238 239 242 244 246 247 250 251 253 255 257 260 262 263 265 267 270 272 274 275 277 279 281 284 285 286 286 288 289 290 291 292
223 224 227 228 230 231 233 233 235 237 238 240 241 243 245 248 249 250 252 254 257 259 261 263 264 265 267 269 271 273 276 278 280 282 283 285 286 286 287 287 288 289 290
226 227 228 230 232 232 234 235 237 237 239 241 241 244 246 248 250 252 253 256 258 260 261 263 265 265 267 270 272 274 276 278 280 282 284 285 286 287 287 287 287 288 289
228 228 229 230 232 233 234 235 237 239 240 242 244 245 246 247 250 252 254 257 259 262 263 265 266 267 269 271 273 274 276 278 280 282 283 284 285 286 286 287 287 287 288
231 231 232 233 233 234 236 237 239 241 242 243 245 246 248 249 251 253 255 258 261 263 265 265 267 268 270 272 273 275 277 278 280 282 283 283 285 285 286 286 287 286 287
233 233 234 235 236 236 238 239 240 242 243 245 247 248 249 251 253 255 257 259 261 262 264 266 267 269 271 273 275 277 277 279 281 282 282 283 284 285 286 287 287 285 286
234 234 235 236 237 237 238 239 241 242 244 246 247 249 250 252 254 256 258 260 262 263 265 267 269 271 273 274 275 276 278 279 280 281 282 283 284 285 286 285 285 286 285
237 236 236 235 236 237 238 239 240 242 244 246 247 249 251 253 254 256 258 260 262 264 266 267 269 271 273 274 275 277 278 279 279 280 281 282 283 283 283 284 285 284 284
238 237 237 236 237 237 238 239 241 242 244 246 248 250 252 253 255 256 258 261 262 264 265 267 268 271 272 273 274 276 277 278 279 280 281 281 282 282 283 283 283 283 283
239 238 237 237 237 238 239 240 241 243 245 246 248 250 251 253 255 257 258 260 262 263 265 266 268 270 272 273 274 276 277 279 280 280 280 280 281 281 281 281 282 283 283
238 238 239 239 239 239 240 241 242 243 244 246 248 249 250 252 254 255 257 259 261 263 265 266 269 270 272 273 274 275 277 278 279 279 280 280 280 281 281 281 282 282 283
239 238 239 239 240 240 239 240 241 242 244 245 246 248 250 251 254 256 258 259 261 263 265 267 268 270 272 272 274 275 276 277 278 279 279 279 280 280 280 281 281 282 282
241 240 239 238 239 239 239 239 240 240 242 244 245 248 250 252 254 255 257 259 260 262 265 267 269 270 271 273 274 275 276 277 278 279 279 278 279 279 280 280 281 281 281
243 241 240 239 238 238 239 239 239 239 241 243 245 247 250 252 254 256 257 259 260 262 264 265 267 269 270 272 273 274 275 276 277 278 278 278 278 279 280 280 280 280 281
247 244 242 241 240 240 240 241 241 240 242 243 245 248 250 252 255 256 257 259 260 262 264 265 267 268 270 271 273 274 275 276 277 277 278 278 279 279 279 279 279 280 281
250 246 244 243 242 241 242 242 243 243 243 244 246 249 251 253 255 256 257 258 260 262 264 266 267 269 270 271 272 274 274 275 276 277 277 278 278 278 278 278 279 280 280
252 249 248 245 245 244 245 245 245 245 245 246 248 250 252 253 254 256 257 259 260 262 264 266 268 269 271 272 273 274 275 276 276 277 277 277 277 277 277 278 279 279 279
256 254 253 250 248 247 247 247 247 247 247 247 249 251 252 253 255 257 258 259 261 263 264 266 268 270 272 273 274 275 276 276 276 276 276 276 277 277 277 277 278 278 279
259 258 256 254 251 249 248 248 248 248 248 249 250 252 253 254 255 257 258 260 262 264 266 268 269 270 272 274 275 276 276 276 276 276 276 276 277 277 277 277 277 278 279
263 262 258 256 253 251 249 250 250 249 250 250 251 253 254 255 256 257 259 261 263 265 266 268 269 270 272 273 275 275 275 276 276 276 276 276 276 275 276 277 278 278 279
266 265 260 256 255 253 252 252 252 251 252 251 252 254 255 256 257 258 260 262 264 266 267 268 269 271 272 273 274 274 274 276 276 275 274 274 275 275 276 276 277 278 279
268 265 260 255 254 253 253 253 252 251 252 253 254 255 256 257 258 259 260 262 263 266 267 268 269 271 272 273 273 274 273 274 275 275 274 274 275 276 276 276 277 278 279
268 264 259 256 255 254 255 254 254 253 252 253 254 255 256 257 258 259 260 261 263 265 266 268 269 270 271 272 273 274 273 273 274 274 274 274 275 275 276 276 277 278 279
267 264 259 257 256 254 255 255 255 255 254 255 255 256 256 257 259 260 261 262 263 265 267 267 268 269 270 271 273 273 273 272 273 274 275 275 275 276 277 277 278 279 280
Height
5747 5753 5759 5765 5771 5777 5782 5787 5792 5796 5801 5804 5808 5811 5814 5817 5820 5822 5825 5827 5829 5831 5832 5834 5834 5835 5836 5836 5837 5837 5837 5836 5836 5835 5835 5834 5832 5831 5829 5827 5825 5823 5821
5741 5747 5753 5759 5764 5770 5775 5780 5785 5789 5793 5797 5801 5804 5806 5809 5812 5815 5817 5819 5821 5823 5824 5826 5827 5828 5828 5829 5829 5829 5829 5828 5828 5827 5826 5826 5825 5822 5821 5819 5816 5814 5812
5735 5741 5746 5752 5757 5763 5768 5772 5777 5781 5785 5789 5792 5796 5798 5801 5804 5807 5809 5811 5813 5815 5816 5817 5818 5819 5820 5820 5820 5820 5820 5820 5819 5818 5817 5816 5816 5814 5813 5810 5807 5805 5803
5728 5734 5740 5745 5751 5756 5760 5765 5769 5773 5777 5780 5784 5788 5791 5794 5797 5799 5800 5803 5804 5806 5807 5808 5809 5810 5811 5811 5811 5811 5811 5811 5810 5809 5807 5806 5805 5804 5803 5802 5798 5796 5793
5721 5727 5732 5738 5743 5748 5752 5756 5760 5764 5768 5772 5776 5779 5783 5786 5788 5790 5792 5794 5795 5797 5798 5799 5800 5801 5802 5802 5802 5802 5802 5801 5801 5799 5798 5796 5794 5792 5791 5791 5789 5786 5783
5713 5719 5724 5729 5734 5739 5744 5747 5751 5755 5759 5763 5766 5769 5773 5776 5778 5780 5782 5784 5786 5787 5789 5790 5791 5792 5792 5792 5792 5792 5792 5791 5790 5789 5788 5786 5784 5782 5780 5779 5778 5775 5773
5705 5710 5715 5720 5726 5730 5734 5738 5742 5746 5750 5753 5757 5760 5763 5766 5768 5771 5773 5775 5777 5778 5779 5780 5781 5782 5782 5782 5782 5782 5781 5780 5780 5778 5777 5775 5773 5771 5769 5767 5766 5764 5762
5697 5702 5707 5711 5716 5721 5725 5729 5733 5736 5740 5743 5747 5750 5753 5756 5758 5761 5763 5765 5766 5768 5769 5770 5771 5771 5771 5771 5771 5771 5770 5769 5768 5767 5766 5764 5762 5760 5758 5756 5754 5752 5750
5689 5693 5697 5702 5706 5711 5715 5719 5722 5726 5730 5733 5736 5739 5742 5745 5748 5750 5752 5754 5756 5757 5758 5759 5759 5759 5760 5760 5760 5759 5759 5758 5756 5755 5754 5752 5750 5748 5746 5744 5741 5740 5738
5680 5684 5688 5692 5696 5700 5704 5708 5712 5716 5719 5723 5726 5729 5732 5735 5737 5740 5742 5743 5745 5746 5747 5748 5748 5749 5749 5749 5748 5748 5747 5746 5745 5743 5742 5740 5738 5736 5734 5732 5729 5727 5725
5671 5674 5678 5682 5686 5690 5694 5698 5701 5705 5709 5712 5715 5718 5721 5723 5726 5728 5730 5732 5733 5734 5735 5736 5737 5737 5737 5737 5736 5736 5735 5734 5733 5732 5730 5728 5727 5724 5722 5720 5717 5715 5712
5662 5665 5668 5672 5675 5679 5683 5687 5691 5694 5698 5701 5704 5707 5709 5712 5715 5717 5719 5720 5721 5723 5723 5724 5725 5725 5725 5725 5725 5724 5723 5722 5721 5720 5718 5716 5714 5712 5710 5708 5706 5703 5701
5654 5656 5659 5662 5665 5669 5672 5676 5679 5683 5687 5690 5693 5695 5698 5701 5703 5705 5707 5708 5710 5711 5712 5712 5713 5713 5713 5713 5712 5712 5711 5710 5709 5707 5706 5704 5702 5700 5698 5696 5694 5691 5689
5644 5647 5649 5652 5655 5659 5662 5665 5669 5672 5675 5678 5681 5684 5687 5690 5692 5694 5695 5697 5698 5699 5700 5701 5701 5701 5701 5701 5700 5700 5699 5698 5696 5695 5693 5692 5690 5688 5686 5684 5682 5680 5677
5636 5638 5640 5643 5646 5649 5652 5655 5658 5661 5665 5668 5671 5674 5676 5678 5681 5682 5684 5685 5687 5688 5688 5689 5689 5689 5689 5689 5688 5688 5687 5685 5684 5683 5681 5679 5678 5676 5674 5672 5670 5668 5666
5628 5629 5631 5634 5636 5639 5642 5645 5648 5651 5654 5657 5660 5663 5666 5668 5670 5672 5673 5674 5675 5676 5677 5678 5678 5678 5678 5677 5677 5676 5675 5674 5672 5671 5669 5667 5666 5664 5662 5660 5658 5656 5654
5620 5621 5623 5625 5627 5630 5632 5635 5638 5641 5644 5648 5650 5653 5655 5657 5659 5661 5662 5663 5664 5665 5666 5666 5666 5666 5666 5665 5665 5664 5663 5662 5660 5659 5657 5655 5654 5652 5650 5649 5647 5645 5643
5612 5613 5615 5617 5619 5621 5623 5626 5629 5632 5635 5638 5640 5643 5645 5647 5648 5650 5651 5652 5653 5654 5655 5655 5655 5655 5654 5654 5653 5652 5651 5650 5648 5647 5645 5644 5642 5641 5639 5637 5636 5634 5632
5605 5606 5607 5609 5610 5612 5614 5616 5619 5622 5625 5627 5630 5632 5634 5636 5638 5639 5640 5641 5642 5643 5644 5644 5643 5643 5643 5642 5641 5640 5639 5638 5636 5635 5634 5632 5631 5630 5628 5627 5626 5624 5622
5599 5599 5600 5601 5602 5604 5606 5608 5610 5612 5615 5617 5620 5622 5624 5626 5627 5628 5630 5630 5631 5632 5632 5632 5632 5632 5631 5630 5629 5628 5627 5626 5625 5623 5622 5621 5620 5618 5617 5616 5615 5613 5612
5592 5592 5592 5593 5594 5596 5597 5599 5601 5603 5605 5607 5610 5611 5613 5615 5616 5618 5619 5620 5621 5621 5621 5621 5621 5620 5620 5619 5618 5617 5616 5615 5614 5612 5611 5610 5609 5608 5607 5606 5604 5603 5602
5584 5584 5584 5585 5586 5587 5589 5590 5592 5594 5596 5598 5600 5601 5603 5604 5606 5607 5608 5609 5610 5610 5610 5610 5610 5609 5609 5608 5607 5606 5605 5604 5603 5602 5601 5600 5599 5598 5597 5595 5594 5593 5592
5576 5576 5576 5577 5578 5579 5580 5582 5583 5585 5587 5588 5590 5591 5593 5594 5596 5597 5598 5598 5599 5599 5599 5599 5599 5599 5598 5597 5597 5596 5595 5594 5593 5592 5591 5590 5589 5588 5587 5586 5584 5583 5582
5568 5567 5567 5568 5570 5571 5572 5573 5575 5576 5577 5579 5580 5582 5583 5584 5585 5586 5587 5588 5588 5589 5589 5589 5588 5588 5587 5587 5586 5585 5584 5584 5583 5582 5581 5580 5579 5578 5577 5576 5575 5573 5572
5559 5559 5559 5560 5561 5562 5563 5565 5566 5567 5568 5570 5571 5572 5573 5574 5575 5576 5577 5577 5578 5578 5579 5578 5578 5578 5577 5577 5576 5575 5574 5574 5573 5572 5571 5571 5570 5568 5567 5566 5565 5564 5562
5550 5550 5551 5551 5552 5554 5555 5556 5557 5558 5559 5560 5561 5563 5564 5565 5566 5566 5567 5567 5568 5568 5568 5568 5568 5567 5567 5567 5566 5565 5565 5564 5564 5563 5562 5561 5560 5559 5557 5556 5555 5554 5552